Weather History for Montgomery, NY

Change the Weather History Date:

Wednesday, January 29, 2014

  Actual Average (KPOU) Record (KPOU)
Temperature  
Mean Temperature 16 °F 26 °F  
Max Temperature 23 °F 36 °F 63 °F (2002)
Min Temperature 8 °F 16 °F -16 °F (1963)
Degree Days  
Heating Degree Days 50 39  
Month to date heating degree days 1147  
Since 1 July heating degree days 3476  
Cooling Degree Days 0 0  
Month to date cooling degree days 0  
Year to date cooling degree days 0  
Moisture  
Dew Point -5 °F    
Average Humidity 43    
Maximum Humidity 59    
Minimum Humidity 27    
Precipitation  
Precipitation 0.00 in 0.10 in 1.15 in (1990)
Month to date precipitation 2.89  
Year to date precipitation 2.89  
Sea Level Pressure  
Sea Level Pressure 30.15 in    
Wind  
Wind Speed 6 mph (WSW)    
Max Wind Speed 16 mph    
Max Gust Speed 23 mph    
Visibility 10 miles    
Events      
T = Trace of Precipitation, MM = Missing Value Source: NWS Daily Summary

Daily Weather History Graph

Daily Weather History Graph

Search for Another Location

Airport:

Trip Planner

Search our weather history database for the weather conditions in past years. The results will help you decide how hot, cold, wet, or windy it might be!

Date:

Astronomy

Jan. 29, 2014 Rise Set
Actual Time 7:11 AM EST 5:09 PM EST
Civil Twilight 6:42 AM EST 5:38 PM EST
Nautical Twilight 6:08 AM EST 6:12 PM EST
Astronomical Twilight 5:36 AM EST 6:44 PM EST
Moon 5:46 AM EST (1/29) 4:05 PM EST (1/29)
Length of Visible Light 10h 56m
Length of Day
9h 57m
Waning Crescent, 2% of the Moon is Illuminated
Jan 29
Waning Crescent
Jan 30
New
Feb 6
First Quarter
Feb 14
Full
Feb 22
Last Quarter

Hourly Weather History & Observations

Time (EST) Temp. Windchill Dew Point Humidity Pressure Visibility Wind Dir Wind Speed Gust Speed Precip Events Conditions
12:54 AM 14.0 °F - 1.0 °F 56% 30.19 in 10.0 mi Calm Calm - N/A   Overcast
1:54 AM 14.0 °F 8.2 °F -2.9 °F 47% 30.17 in 10.0 mi SW 3.5 mph - N/A   Overcast
2:54 AM 12.9 °F 6.9 °F -0.0 °F 56% 30.17 in 10.0 mi SW 3.5 mph - N/A   Overcast
3:54 AM 12.9 °F 6.9 °F -0.0 °F 56% 30.15 in 10.0 mi WSW 3.5 mph - N/A   Overcast
4:54 AM 12.9 °F 5.2 °F -2.9 °F 49% 30.13 in 10.0 mi West 4.6 mph - N/A   Overcast
5:54 AM 10.9 °F 0.2 °F -6.0 °F 47% 30.13 in 10.0 mi West 6.9 mph - N/A   Clear
6:54 AM 10.0 °F -0.9 °F -7.1 °F 46% 30.15 in 10.0 mi West 6.9 mph - N/A   Clear
7:54 AM 8.1 °F -2.0 °F -8.0 °F 48% 30.16 in 10.0 mi West 5.8 mph - N/A   Clear
8:54 AM 10.9 °F -1.8 °F -8.0 °F 42% 30.17 in 10.0 mi WNW 9.2 mph - N/A   Clear
9:54 AM 14.0 °F 3.9 °F -9.0 °F 35% 30.16 in 10.0 mi Variable 6.9 mph - N/A   Clear
10:54 AM 16.0 °F 8.8 °F -8.0 °F 34% 30.14 in 10.0 mi WSW 4.6 mph - N/A   Clear
11:54 AM 18.0 °F 5.4 °F -8.0 °F 31% 30.12 in 10.0 mi West 11.5 mph - N/A   Clear
12:54 PM 21.0 °F 9.3 °F -4.0 °F 33% 30.07 in 10.0 mi WSW 11.5 mph 23.0 mph N/A   Clear
1:54 PM 23.0 °F 10.1 °F -7.1 °F 27% 30.05 in 10.0 mi WSW 15.0 mph 20.7 mph N/A   Clear
2:54 PM 23.0 °F 9.6 °F -6.0 °F 28% 30.05 in 10.0 mi WSW 16.1 mph - N/A   Clear
3:54 PM 21.9 °F 8.7 °F -7.1 °F 28% 30.06 in 10.0 mi West 15.0 mph 19.6 mph N/A   Clear
4:54 PM 19.9 °F 7.9 °F -7.1 °F 30% 30.10 in 10.0 mi WSW 11.5 mph - N/A   Clear
5:54 PM 19.0 °F 7.5 °F -6.0 °F 33% 30.14 in 10.0 mi WSW 10.4 mph - N/A   Clear
6:54 PM 17.1 °F 6.6 °F -5.1 °F 37% 30.18 in 10.0 mi WSW 8.1 mph - N/A   Clear
7:54 PM 14.0 °F 3.9 °F -4.0 °F 45% 30.20 in 10.0 mi SW 6.9 mph - N/A   Clear
8:54 PM 10.9 °F 2.9 °F -4.0 °F 51% 30.22 in 10.0 mi SW 4.6 mph - N/A   Clear
9:54 PM 9.0 °F -2.2 °F -2.9 °F 59% 30.25 in 10.0 mi South 6.9 mph - N/A   Clear
10:54 PM 8.1 °F -0.5 °F -4.0 °F 58% 30.27 in 10.0 mi SSW 4.6 mph - N/A   Clear
11:54 PM 12.9 °F 2.6 °F -4.0 °F 47% 30.28 in 10.0 mi West 6.9 mph - N/A   Clear